Location: Ash Swamp
(41.5170°N, 74.6157°W)
Time: 02:02:12
(UTC+00:00)

Spot 2 Rocket - Pass Details

Date: 14 July 2020
Orbit: 757 x 772 km, 98.6° (Epoch: 14 August)

Event Time Altitude Azimuth Distance (km) Brightness Sun altitude
Exits shadow 02:19:25 19° 178° (S) 1,758 4.9 -16.2°
Maximum altitude 02:23:04 68° 258° (WSW) 829 3.7 -16.6°
Drops below altitude 10° 02:28:10 10° 341° (NNW) 2,325 7.1 -17.2°
Sets 02:30:31 0° 344° (NNW) 3,257 8.0 -17.5°
